User: anonymous
Location: Ostrava
(49.8330°N, 18.2830°E)
Time: 16:32:22
(UTC+02:00)
Language:

NOAA 19 - Orbit

View from above orbital plane
View from above orbital plane
View from above satellite
View from above satellite

Ground track
Ground track

The orbit data is extracted from the following two-line orbital elements,

1 33591U 09005A   14108.46235426  .00000314  00000-0  19725-3 0  2023
2 33591 098.9403 053.6937 0012994 289.5212 177.8205 14.11693693267562
Epoch (UTC): 18 April 2014 11:05:47
Eccentricity: 0.0012994
inclination: 98.9403°
perigee height: 844 km
apogee height: 863 km
right ascension of ascending node: 53.6937°
argument of perigee: 289.5212°
revolutions per day: 14.11693693
mean anomaly at epoch: 177.8205°
orbit number at epoch: 26756

The dashed part of the orbit path shows where the satellite is in the earth's shadow,  

DLR